Погода в Бугульме

Хотите узнать прогноз погоды в Бугульме? Тогда Вам сюда: Погода в Бугульме

Поиск расширенной информации на нашем сайте:

Полезная информация:

Новости сайта



02.01.2020
Опубликован Долгосрочный прогноз погоды по городам России и ближнего зарубежья на январь 2020 года.
Карты: Прогноз на январь и февраль 2020 года, Сравнение прогнозируемой аномалии приземной температуры воздуха на январь 2020 года по разным моделям.




Погода в Бугульме - сегодня

Время (UTC), дата Ветер
(°,м/с) 
Видим.   Явления Облачность Т
(°С)
Тd
(°С)
f(%) Тe
(°С)
Pmin
(гПа)
dP
(гПа)
Po
(мм)
O2
(г/м3)
Тmin Tmax R s Состояние
почвы
00 19.01.20 250 (З) 10 км  слаб. ливневой снег  10/8 300 м кучево-дожд., средняя 
[Cb calv|Ac und]
-0.9 -1.7 94 -2  1025  0.3  740  299           
03 19.01.20 230 (ЮЗ) 10 км  {ливн. осадки}  10/6 600 м кучево-дожд., средняя 
[Cb calv|Ac und]
-1.2 -1.9 95 -3  1024.8  -0.2  740  300  -1.2    0.4  равномерный
сухой снег
100% 
06 19.01.20 220 (ЮЗ) 20000 м  {ливн. осадки}  10/8 540 м средняя 
[Sc|Ac und]
-1.2 -2.2 93 -3  1024.7  0.1  740  300  -1.3         
09 19.01.20 220 (ЮЗ) 20000 м    10/10 540 м 
[Sc]
-0.8 -4 79 -4  1023.1  -1.5  739  299           
12 19.01.20 230 (ЮЗ) 7-12{12}  20000 м    10/10 420 м 
[Sc]
-1.1 -4 81 -5  1022.2  -0.9  738  299           
15 19.01.20 250 (З) 5{12}  10 км    10/10 360 м 
[St]
-1.5 -4 83 -5  1021.8  -0.5  738  299    -0.8       
18 19.01.20 260 (З) 5{11}  10 км    10/10 400 м 
[Sc]
-2.2 -3.3 92 -6  1021.7  -0.2  738  300           
21 19.01.20 270 (З) 10 км    10/10 210 м 
[St]
-2 -2.8 94 -5  1021.3  -0.3  737  300           
00 20.01.20 260 (З) 10 км    10/10 120 м 
[St]
-2 -2.8 94 -5  1020.8  -0.5  737  299           
03 20.01.20 260 (З) 6{10}  10 км  слаб. снег  10/10 120 м 
[Frnb|Ns]
-2.1 -2.9 94 -6  1019.7  -1.1  736  299  -2.3    0.2  равномерный
сухой снег
100% 
06 20.01.20 250 (З) 4000 м  слаб. снег  10/10 270 м 
[Frnb|Ns]
-1.9 -2.9 93 -5  1018.4  -1.2  735  299           
09 20.01.20 270 (З) 5{11}  20000 м  в посл. час снег  10/10 360 м 
[Sc]
-1.6 -3.1 89 -5  1017.3  -1.2  734  298           
12 20.01.20 260 (З) 20000 м  слаб. снег  10/10 270 м 
[Frnb]
-1.9 -3.2 91 -5  1016.3  -0.9  734  298           
15 20.01.20 250 (З) 10 км  слаб. снег  10/10 240 м 
[Frnb|Ns]
-2 -3.1 92 -5  1015.4  -0.9  733  298    -1.6  0.5     
18 20.01.20 240 (ЮЗ) 2000 м  ливневой снег  10/10 180 м кучево-дожд. 
[Cb calv]
-2.3 -3 95 -6  1013.8  -1.6  732  298           
21 20.01.20 280 (З) 10 км  {ливн. осадки}  10/10 210 м 
[Sc]
-2.2 -2.9 95 -4  1013.1  -0.6  731  297           
00 21.01.20 230 (ЮЗ) 2000 м  в посл. час снег{ливн. осадки}  10/10 100 м 
[St]
-2.1 -2.6 96 -3  1012.6  -0.5  731  297           
03 21.01.20 240 (ЮЗ) 0500 м  туман  ?/? 60 
-1.8 -2.2 97 -4  1011.5  -1.1  730  296  -2.3    11  равномерный
сухой снег
100% 
06 21.01.20 220 (ЮЗ) 4000 м  слаб. ливневой снег  10/10 180 м кучево-дожд. 
[Cb calv]
-1.6 -2 97 -4  1010.2  -1.2  729  296           
09 21.01.20 240 (ЮЗ) 20000 м  в посл. час ливневой снег  10/10 180 м кучево-дожд. 
[Cb calv]
-1.1 -2.2 92 -4  1008.7  -1.4  728  295           
12 21.01.20 220 (ЮЗ) 20000 м  слаб. ливневой снег  10/10 180 м кучево-дожд. 
[Cb calv]
-1.3 -2.6 91 -5  1006.8  -1.8  727  295           
15 21.01.20 200 (Ю) 10 км  слаб. ливневой снег  10/8 330 м кучево-дожд., средняя 
[Cb calv|Ac und]
-1.5 -2.7 92 -5  1004.1  -2.7  725  294    -1  0.2     
18 21.01.20 200 (Ю) 7-11{11}  10 км  слаб. ливневой снег  10/10 210 м кучево-дожд. 
[Cb calv]
-1.6 -2.8 92 -6  999.8  -4.1  722  293           
21 21.01.20 200 (Ю) 8-12{14}  1000 м  ливневой снег  10/10 240 м кучево-дожд. 
[Cb calv]
-2.1 -3 94 -7  995.5  -4.2  719  292           
00 22.01.20 200 (Ю) 6-12{13}  2000 м  ливневой снег  10/10 270 м кучево-дожд. 
[Cb calv]
-2.4 -3.5 92 -6  992  -3.4  716  291           
Время (UTC), дата Ветер
(°,м/с) 
Видим.   Явления Облачность Т
(°С)
Тd
(°С)
f(%) Тe
(°С)
Pmin
(гПа)
dP
(гПа)
Po
(мм)
O2
(г/м3)
Тmin Tmax R s Состояние
почвы

Для получения пояснительной информации подведите курсор к названию столбца.

ПОГОДА в Бугульме - архив

Всё, что Вы хотите узнать о погоде в Бугульме - удобно и подробно!

Выберите нужную дату (начиная с 1 января 2019* года) и нажмите кнопку "Найти".
Будут отображены архивные сводки погоды по пункту Бугульма, начиная с указанной даты.


Отображать данные в формате CSV (для использования в таблицах Excel)


Внимание! Наш архив погоды предназначен исключительно для личного некоммерческого использования в познавательных целях. Если Вам необходимы официальные справки о состоянии погоды (для производственных, юридических, коммерческих и т.п. целей), обращайтесь в органы Росгидромета.

*Примечание: данная дата относится к архиву по метеостанциям СССР (Россия, СНГ, Балтия).
Архив по метеостанциям Зарубежной Европы и Азии (кроме Китая) хранится 10 дней, по другим регионам земного шара (Китай, Африка, Америка, Австралия, Океания) - 1 день.

Бугульма - район местоположения метеостанции


Название, широта, долгота, высота метеостанции:
Бугульма 54.6°ш. 52.8°д. 304 м над ур. моря [Российская Федерация]

Дополнительная информация

В oтличие oт бoльшинства пoгoдных сайтoв мы публикуем пoдрoбную метеoинфoрмацию в детальнoм прoфессиoнальнoм фoрмате.

Характеристики температуры и влажнoсти вoздуха измеряются на высoте 2 м в тени вдали oт зданий и деревьев.
Скoрoсть ветра измеряется на высoте 10 м (на урoвне рoста челoвека скoрoсть ветра ниже в 1.5-2 раза). Если метеoстанция нахoдится в гoрoде или в лесу, тo скoрoсть ветра занижена на 2-4 м/с пo сравнению с oткрытым местoм. Скoрoсть ветра над акватoриями крупных рек и oзёр, а также на вершинах хoлмoв на 2-5 м/с выше, чем в oбычных услoвиях.
Атмoсфернoе давление в разных тoчках местнoсти мoжет значительнo oтличаться oт давления на метеoстанции, в зависимoсти oт услoвий рельефа (при пoдъёме на 10 м давление пoнижается примернo на 1 мм рт.ст.).